Location: Home
(42.5358°N, 72.7383°W)
Time: 07:04:35
(UTC-05:00)

Explorer 11/Cluster Stage 4 - Pass Details

Date: 30 November 2021
Orbit: 467 x 1255 km, 28.8° (Epoch: 25 January)

Event Time Altitude Azimuth Distance (km) Brightness Sun altitude
Rises 05:59:31 0° 252° (WSW) 4,088 - -11.0°
Exits shadow 06:00:28 - 250° (WSW) 3,810 9.6 -10.8°
Reaches altitude 10° 06:02:45 10° 242° (WSW) 3,181 9.3 -10.5°
Maximum altitude 06:09:27 29° 187° (S) 2,123 8.9 -9.3°
Drops below altitude 10° 06:16:06 10° 131° (SE) 3,161 11.0 -8.2°
Sets 06:19:19 0° 121° (ESE) 4,058 12.5 -7.6°
